Location: Croissy-Beaubourg
(48.8283°N, 2.6696°E)
Time: 04:21:34
(UTC+00:00)

Cosmos 2082 - Pass Details

Date: 18 August 2022
Orbit: 832 x 856 km, 71.0° (Epoch: 29 September)

Event Time Altitude Azimuth Distance (km) Brightness Sun altitude
Rises 01:35:53 0° 335° (NNW) 3,406 7.4 -24.0°
Reaches altitude 10° 01:38:51 10° 350° (N) 2,472 6.8 -23.8°
Maximum altitude 01:43:20 23° 43° (NE) 1,713 6.0 -23.4°
Drops below altitude 10° 01:47:50 10° 95° (E) 2,476 6.4 -23.0°
Sets 01:50:47 0° 109° (ESE) 3,412 7.0 -22.8°
